Theta_e
302 301 301 300 300 300 301 301 302 301 301 297 295 298 292 291 288 303 301 306 303 293 285 287 286 284 287 291 289 291 289 288 291 289 291 289 291 289 288 288 286 287 286 286 285 287 283 285 283 281 284 285 287 287 291 291 291 291 286 290 290 299 286 282 282 283 284 288 287 290 291 291 286 287 287 286 285 286 284 282 281 284 282 281 280 280 278
301 301 301 300 300 300 300 301 301 301 301 298 297 293 292 292 292 295 305 306 303 290 282 282 284 285 288 287 287 291 290 289 288 288 290 289 288 287 287 289 290 286 289 287 285 288 278 284 285 283 284 284 290 289 289 292 290 290 287 288 295 285 285 284 277 278 281 285 286 286 290 290 286 285 286 287 286 287 286 285 283 283 282 284 280 277 280
301 301 301 301 300 300 300 301 301 301 301 301 297 291 293 292 295 294 299 304 298 286 288 284 284 285 285 285 284 286 288 291 289 289 289 292 290 287 285 288 289 287 289 287 288 289 287 282 287 289 288 286 289 289 290 293 291 293 296 302 297 288 286 283 277 273 273 273 274 276 279 285 284 286 287 286 288 286 285 283 282 280 282 283 280 277 283
301 301 301 301 300 300 300 300 300 301 301 301 297 294 292 289 283 290 294 297 295 293 296 291 286 284 284 283 285 287 285 290 292 291 289 291 290 288 288 289 290 288 288 286 287 287 290 287 284 285 285 285 289 289 291 292 293 298 304 303 296 289 291 286 282 279 278 281 282 285 285 283 284 285 287 286 288 288 286 283 280 282 279 282 282 287 288
301 301 301 300 300 300 300 300 300 301 301 302 296 295 293 293 285 285 284 291 292 290 293 289 289 284 288 282 287 283 286 288 289 292 283 290 289 289 288 289 286 286 287 284 285 288 287 289 288 288 287 287 288 290 291 292 296 305 302 303 294 291 285 287 286 285 286 285 284 285 287 286 283 284 285 284 286 287 285 283 281 284 284 279 281 286 293
301 301 301 300 300 300 300 300 300 301 301 302 297 293 296 287 289 290 291 286 283 284 286 291 287 288 288 284 287 285 285 286 283 289 291 292 291 285 287 288 289 289 287 287 282 283 287 287 282 288 288 287 290 288 290 291 298 303 297 300 293 289 284 287 286 287 287 286 287 286 285 285 284 286 284 284 285 286 286 284 283 286 283 281 284 289 293
302 301 301 300 300 300 300 300 300 301 300 300 293 290 295 294 292 291 295 284 288 287 288 289 288 286 287 285 286 281 282 284 288 289 289 290 288 288 280 287 290 290 290 288 284 285 283 282 287 286 288 290 288 288 289 294 298 297 295 296 294 289 283 287 288 288 289 289 288 287 286 284 285 285 285 285 285 286 287 285 284 287 285 285 287 292 295
302 301 300 300 300 300 300 299 300 300 300 297 293 292 289 286 285 284 291 290 287 288 288 288 288 285 290 285 286 285 284 281 282 287 288 282 286 290 286 288 290 291 290 289 286 289 289 289 284 288 290 289 290 289 290 291 295 295 293 295 294 291 284 292 285 284 287 289 290 286 286 286 285 285 284 285 284 285 285 286 287 289 290 289 289 291 294
302 301 301 300 300 300 300 299 300 300 300 293 290 291 293 291 293 292 286 284 286 289 289 288 288 286 289 286 288 288 288 287 291 291 293 289 287 288 286 290 291 292 292 291 290 293 293 292 292 293 292 286 293 290 292 295 291 292 292 293 293 291 286 289 284 282 284 287 288 287 285 285 284 284 284 284 284 285 285 286 287 287 287 288 291 290 291
302 302 301 301 300 300 300 299 300 299 300 293 291 288 294 293 297 296 290 284 290 286 289 290 290 286 291 291 292 291 291 292 293 284 288 293 294 292 291 292 291 290 290 290 292 294 295 296 297 297 297 297 295 294 294 294 292 291 291 291 289 286 285 284 280 281 279 286 288 285 285 284 284 281 282 284 283 284 285 288 288 289 291 289 286 291 297
302 302 302 302 301 300 300 300 300 300 297 292 290 290 292 289 288 290 291 284 285 287 288 287 287 291 292 294 293 295 294 294 292 287 283 291 295 296 296 294 290 288 289 294 299 299 299 300 299 298 298 296 295 294 294 294 292 291 292 289 287 289 287 283 284 281 281 285 286 285 283 275 274 283 285 287 287 286 287 287 288 287 293 291 294 296 295
302 302 302 302 301 300 300 299 300 300 298 296 295 292 293 294 292 291 287 283 285 290 288 286 288 291 290 292 293 293 293 292 291 291 289 289 295 297 296 295 292 285 293 298 300 301 300 300 299 297 296 295 294 294 294 292 293 292 291 291 287 288 285 284 284 282 282 282 281 281 275 275 282 287 291 292 289 289 287 288 289 288 291 292 294 296 300
302 302 302 302 302 301 300 300 300 300 299 297 295 291 294 296 291 289 289 287 284 288 286 288 292 292 293 292 291 293 294 294 294 294 294 293 292 294 296 295 292 296 301 300 301 298 292 290 289 292 293 292 293 293 293 291 294 295 290 292 288 283 284 283 282 281 280 281 276 276 275 282 288 290 292 294 290 289 291 289 289 292 291 291 293 298 302
302 302 302 302 302 301 300 300 300 300 300 298 294 293 294 294 290 290 290 285 285 289 290 289 291 291 291 291 291 292 293 293 293 292 291 294 294 295 298 300 301 302 302 301 297 292 285 285 281 282 285 286 286 289 291 293 294 294 293 292 291 288 287 283 283 283 279 278 275 279 284 288 289 289 291 290 288 288 288 281 287 294 292 290 292 296 301
302 302 302 302 302 301 301 300 300 300 300 299 295 293 293 294 294 291 292 290 285 288 290 285 289 290 291 291 291 289 289 290 290 290 294 296 296 299 299 302 303 303 301 298 293 291 286 282 281 279 280 279 279 281 288 289 291 293 294 292 291 290 289 286 284 282 277 277 277 276 276 275 282 286 292 294 295 292 289 288 286 290 290 291 292 298 303
302 302 302 302 302 302 301 301 300 300 300 299 295 292 292 295 296 295 292 289 287 283 286 293 294 292 291 291 292 290 289 288 289 287 288 292 295 298 300 302 304 304 304 299 293 286 282 283 279 277 276 280 280 282 282 288 288 293 293 293 291 289 290 287 285 282 281 277 275 276 276 279 282 289 293 295 295 293 290 289 284 288 288 293 293 298 299
302 302 302 302 302 302 301 301 300 300 299 299 294 292 290 295 295 293 290 291 291 285 292 293 293 294 292 291 291 288 292 289 291 287 286 289 293 296 299 303 302 301 300 295 292 287 285 282 281 281 280 284 282 280 284 284 284 287 292 292 289 287 281 283 282 279 277 275 277 279 275 283 292 290 292 294 294 293 290 281 276 287 290 292 293 297 298
302 302 302 302 302 301 301 301 300 300 299 299 296 292 290 294 296 294 292 290 286 286 290 294 292 288 288 291 289 292 294 292 291 290 288 291 292 293 297 299 298 301 301 291 290 285 284 281 282 280 279 285 288 286 278 282 282 280 284 283 283 283 281 280 282 277 280 280 277 276 279 286 289 291 294 294 295 289 282 276 284 288 290 293 295 294 299
303 302 302 302 302 301 301 301 300 300 300 299 296 293 290 292 293 292 291 290 289 284 290 294 294 291 293 297 294 296 295 295 293 287 286 285 291 296 299 300 299 292 298 289 288 286 286 284 286 283 282 282 287 281 284 282 280 283 283 281 283 280 278 280 279 279 278 275 280 279 279 285 292 295 296 295 292 283 275 284 290 294 296 296 297 295 295
303 303 302 302 302 301 301 301 301 300 300 299 297 291 292 294 295 293 290 286 288 286 289 290 291 290 296 295 292 291 292 293 294 291 288 286 294 297 288 285 289 295 290 289 285 288 285 285 285 287 282 281 282 290 281 283 285 284 283 282 278 282 281 279 280 278 277 273 274 278 279 289 298 297 295 293 287 284 285 292 298 296 298 298 300 298 295
303 302 302 302 302 301 301 301 301 300 300 299 298 292 290 291 293 294 294 292 287 283 285 292 294 293 295 295 296 296 294 291 294 293 294 294 297 292 284 285 289 293 288 288 286 286 287 284 283 285 287 288 287 286 283 282 284 292 289 283 284 286 283 280 277 279 277 276 277 278 283 288 293 296 288 292 293 293 292 298 299 301 298 298 299 299 297
303 302 302 302 302 301 301 301 301 301 300 299 298 294 290 293 293 294 296 294 288 284 287 291 293 291 293 294 294 295 295 296 298 300 296 291 294 294 292 295 296 295 295 293 287 287 289 288 286 283 284 285 286 284 285 279 280 287 289 286 283 287 285 283 284 284 281 280 278 283 286 292 297 296 296 297 301 301 296 298 300 302 304 300 301 302 300
303 302 301 301 301 301 301 301 301 300 299 299 297 293 290 291 292 295 293 288 290 291 292 291 293 294 296 297 298 299 299 300 300 300 301 296 288 292 297 296 295 301 301 299 294 291 291 289 286 288 285 285 287 284 283 283 282 285 285 290 288 296 292 288 291 290 292 293 291 297 298 300 300 301 300 303 304 303 302 301 301 301 301 300 304 303 302
303 302 301 301 301 301 301 301 301 300 300 299 298 293 291 290 292 292 290 289 287 284 289 292 290 286 291 296 299 301 301 301 301 302 303 303 291 287 292 300 305 301 298 299 298 297 291 289 291 291 284 288 289 282 284 283 284 288 284 287 288 291 293 289 289 291 289 289 292 295 298 297 298 301 301 301 302 302 302 302 301 302 301 302 302 301 301
302 302 301 301 301 301 301 302 301 300 300 299 297 296 295 292 291 290 287 282 282 284 282 285 286 294 298 301 302 300 300 301 304 303 303 304 302 296 293 298 305 300 298 300 299 292 285 291 291 288 286 291 290 286 288 285 285 289 283 285 285 290 293 290 289 286 284 288 291 293 295 297 299 297 299 300 301 301 301 301 302 302 303 302 303 302 302
302 302 301 301 301 302 302 302 301 300 300 299 299 294 292 291 291 292 292 290 289 286 282 284 289 297 300 298 296 299 302 302 302 301 301 303 305 304 301 301 301 304 302 300 298 293 289 287 287 288 287 289 296 288 287 290 290 291 288 287 291 292 293 286 290 290 292 294 294 295 296 298 298 300 300 299 299 301 300 300 301 302 303 302 302 301 302
302 302 302 301 301 302 302 301 301 300 300 300 297 295 294 293 293 292 290 290 286 282 284 283 289 294 297 294 298 300 302 301 300 299 299 300 302 303 302 301 300 301 302 298 294 286 288 286 288 290 291 291 295 293 290 289 292 289 287 290 294 291 288 292 291 289 287 288 293 294 291 291 296 299 300 300 300 299 301 301 303 302 303 302 303 303 302
302 302 302 301 301 302 302 301 301 301 300 300 298 295 295 293 293 294 294 292 290 282 283 285 287 292 297 293 298 299 299 300 299 300 299 298 298 303 301 300 298 298 297 294 291 290 285 288 289 286 288 294 294 290 295 295 291 289 288 291 294 294 293 287 284 287 287 293 294 294 293 294 296 298 300 299 300 300 301 300 300 301 300 301 302 303 303
302 302 302 302 302 302 301 301 301 301 301 299 295 293 292 294 294 295 295 295 294 291 289 289 292 288 284 291 297 296 299 300 300 298 296 296 297 298 299 299 298 295 293 289 286 284 285 286 287 291 292 297 294 289 293 287 285 286 289 294 296 298 296 295 294 292 295 295 294 296 295 297 300 300 299 301 301 301 301 300 300 300 300 300 301 302 303
302 302 302 302 302 302 302 301 301 301 300 295 291 288 284 293 296 295 296 296 295 295 287 284 281 283 290 293 293 296 298 300 298 296 296 294 296 295 297 297 295 295 292 288 287 289 286 287 287 290 298 301 294 289 291 287 288 289 295 296 297 298 299 299 296 297 299 298 297 297 296 299 300 299 300 299 301 302 301 301 299 300 301 299 300 301 300
302 302 302 302 301 301 301 301 301 301 301 293 288 280 284 287 294 300 299 300 299 293 285 285 283 286 286 291 293 294 297 298 295 294 295 294 294 294 294 295 292 293 288 287 289 288 286 288 288 294 296 295 289 289 288 287 286 287 295 297 298 299 300 302 298 298 299 300 300 299 299 298 298 300 301 300 300 299 299 299 300 303 301 301 300 299 300
302 302 302 301 301 301 301 301 301 301 297 293 290 285 284 291 297 301 301 300 298 293 287 282 281 280 281 287 293 295 296 296 296 294 290 293 294 295 294 294 292 292 291 286 287 288 287 285 288 290 292 295 292 287 285 284 286 288 293 296 298 300 301 301 301 300 300 301 302 301 299 299 298 299 299 300 299 298 300 299 299 297 300 299 298 298 298
302 302 301 301 301 301 301 301 301 300 297 298 300 300 300 300 301 300 300 299 295 288 285 283 279 280 280 285 291 293 296 292 289 290 291 291 294 292 292 290 291 293 299 290 288 287 286 285 284 288 291 293 290 287 286 283 286 289 292 295 296 298 299 298 300 300 300 299 297 296 295 296 298 298 298 299 298 298 299 299 299 298 299 300 299 298 300
302 301 301 301 301 301 301 301 302 301 300 297 293 294 297 300 300 301 300 296 290 287 285 283 280 279 281 287 287 290 295 291 288 288 286 289 293 292 287 288 289 289 289 288 286 288 285 286 288 285 289 288 285 287 286 286 288 289 291 294 296 297 297 299 299 300 300 299 297 295 296 296 297 297 296 296 297 296 296 296 298 298 296 297 297 296 296
302 301 300 301 300 300 300 301 296 295 292 293 291 293 294 300 301 302 299 292 283 281 283 281 282 278 278 280 278 287 293 291 287 286 287 288 291 292 288 287 284 285 287 291 284 285 286 287 287 289 285 285 286 286 283 286 288 290 293 296 296 296 297 298 299 298 298 297 299 298 296 297 299 297 297 297 296 295 296 295 295 297 297 295 294 296 296
301 300 300 300 299 299 295 297 293 291 289 288 289 297 301 302 304 299 297 295 292 283 282 282 281 278 277 277 278 285 292 288 288 288 287 285 287 288 284 284 285 286 289 286 284 285 285 289 289 284 279 284 282 285 285 288 290 291 294 296 296 298 298 298 298 297 297 297 297 296 297 297 299 297 296 296 295 293 293 294 295 294 295 294 296 296 297
300 300 299 298 296 295 289 288 294 293 290 293 297 301 302 303 301 298 294 293 294 296 288 283 283 283 281 280 280 282 288 281 285 285 283 285 285 281 282 284 281 283 286 284 282 283 287 289 284 282 282 282 283 285 288 289 291 293 294 297 298 295 294 296 298 298 296 296 296 294 294 295 295 295 295 296 295 295 295 295 296 296 297 297 297 296 296
299 297 291 289 286 283 286 289 290 294 298 298 299 294 291 291 284 286 287 286 288 293 285 286 282 281 281 281 280 285 285 279 283 284 281 279 284 283 280 282 282 284 280 279 281 288 284 283 285 283 280 282 285 286 288 290 291 292 293 296 297 296 297 298 297 297 296 293 293 293 294 294 294 293 295 295 294 294 294 295 295 295 295 296 295 295 295
295 290 286 284 284 281 284 289 294 298 295 295 293 288 284 283 282 281 283 286 288 286 283 285 282 282 281 280 281 285 284 282 280 279 281 283 284 281 282 281 281 281 279 277 281 287 285 280 277 277 279 278 286 292 290 290 291 291 292 293 294 295 297 298 298 299 297 296 296 294 295 294 294 295 293 294 293 293 294 293 294 295 294 294 294 293 294
287 284 281 281 280 281 289 292 296 293 291 287 283 283 282 283 282 278 281 284 284 282 282 281 283 283 284 283 281 281 286 283 277 276 279 284 286 283 282 281 281 280 277 274 277 282 282 280 276 277 277 278 283 285 289 291 292 293 292 293 294 295 297 297 296 295 295 294 293 293 292 293 296 298 295 293 293 294 293 293 293 293 293 293 293 294 293
287 284 282 279 283 286 289 292 290 287 285 283 283 282 279 279 282 280 282 280 279 280 285 285 285 285 286 284 283 281 286 290 285 284 283 284 285 284 281 281 281 280 275 274 278 279 276 276 273 275 277 279 282 288 291 292 293 293 292 292 293 293 295 295 296 295 294 294 293 292 292 292 293 295 295 295 294 292 293 293 293 293 293 293 294 294 294
288 286 287 289 292 293 292 287 282 282 283 284 280 278 278 279 280 281 280 278 276 275 282 287 283 284 285 288 285 285 284 288 286 284 285 283 284 284 280 279 279 276 275 276 279 277 276 276 273 273 277 282 286 290 290 293 293 293 293 292 292 293 294 295 295 295 294 295 293 293 292 292 292 293 294 294 293 293 293 294 293 293 294 293 294 295 295
297 296 293 290 288 285 284 281 281 281 278 278 275 275 276 278 278 278 276 279 280 284 283 290 289 289 288 292 289 289 285 289 290 286 285 283 282 281 279 277 276 277 277 277 276 274 274 272 271 275 280 285 289 290 291 293 293 292 292 292 292 293 294 295 294 294 294 294 293 293 292 292 292 292 293 293 294 293 292 293 294 294 294 295 296 295 294
291 291 288 285 283 282 282 277 283 282 279 278 275 273 274 275 275 274 277 276 277 282 284 288 288 287 284 286 288 288 289 291 287 284 285 283 283 279 277 278 276 278 280 277 274 277 273 270 275 277 281 286 292 291 291 292 292 292 293 293 291 292 292 291 293 294 294 293 293 292 293 293 293 293 294 294 295 295 293 293 293 294 294 295 295 294 292
283 280 280 279 278 280 280 272 280 278 274 276 280 276 277 274 276 276 277 281 283 285 288 288 288 288 286 286 287 287 287 286 287 284 283 284 283 279 279 277 276 276 277 275 273 272 275 278 278 280 283 289 291 291 291 291 291 293 293 293 293 293 292 293 292 292 292 293 293 293 293 292 293 292 292 293 294 295 297 296 294 295 295 295 294 294 293
282 280 278 274 272 275 277 274 277 277 280 281 279 281 280 280 279 281 285 286 285 286 286 288 288 289 285 288 287 287 285 285 285 285 283 281 280 279 280 279 278 277 274 272 272 274 274 277 278 281 286 290 292 292 291 291 293 292 294 295 294 293 292 291 292 292 292 292 291 292 292 292 294 294 293 293 294 295 294 295 294 296 296 295 295 295 294
281 281 280 277 275 276 280 276 277 279 280 280 280 282 281 282 284 285 287 286 286 288 289 289 289 289 287 287 287 287 286 284 285 285 284 283 281 282 283 281 278 274 274 272 272 270 273 278 279 281 288 291 291 291 291 291 292 293 292 291 292 293 293 292 292 293 292 292 292 292 291 291 291 292 293 294 293 293 294 294 295 296 297 297 294 293 293
279 281 280 272 270 275 277 279 281 280 280 283 283 285 285 284 284 284 287 287 287 288 289 289 287 286 285 284 288 286 285 284 284 284 285 285 285 281 277 277 275 275 274 275 273 274 278 279 282 284 287 290 292 293 292 292 292 293 293 292 292 293 293 292 293 292 292 293 292 292 291 291 293 293 294 294 293 293 294 295 295 294 295 295 295 293 294
280 278 276 274 277 279 278 279 280 279 280 283 284 284 283 283 283 285 287 288 286 286 288 287 286 286 285 284 285 285 285 287 283 284 285 283 281 278 278 276 275 276 277 278 280 280 282 286 288 287 288 290 290 294 294 294 294 294 293 293 293 293 293 293 294 293 291 291 291 293 292 292 291 292 292 293 294 293 293 294 295 294 295 296 296 296 295
280 277 279 278 277 275 278 278 279 278 281 282 282 282 282 282 283 286 288 287 287 287 288 286 285 285 286 285 282 282 283 284 285 285 283 281 281 280 277 275 277 277 280 282 282 284 288 289 287 289 289 289 290 292 292 293 292 293 294 294 293 293 293 293 294 293 292 292 292 294 293 291 291 292 294 295 294 293 293 294 294 294 294 296 298 298 297
282 280 277 277 277 275 278 274 273 276 279 280 281 282 282 282 284 285 289 287 287 286 285 284 283 282 282 279 280 280 283 285 285 283 282 282 283 279 276 276 279 284 284 286 285 286 288 290 289 289 290 291 291 291 292 292 293 294 294 294 294 293 293 293 294 293 293 293 292 290 293 293 294 295 294 293 294 294 293 294 293 294 295 295 297 298 297
277 276 275 276 279 279 280 279 279 279 280 282 283 284 284 283 286 288 290 288 285 283 283 284 283 282 278 278 280 283 284 284 282 282 282 283 283 282 281 282 284 285 285 285 287 289 290 291 291 291 291 290 291 291 293 293 293 293 294 294 294 294 293 294 294 293 293 293 293 293 292 292 292 292 293 294 294 294 294 294 293 292 293 295 295 297 298
Wind_Speed
21 22 22 23 23 23 24 25 25 23 24 12 9 6 3 3 4 2 7 7 6 4 2 2 2 3 2 4 7 6 6 6 3 6 2 1 5 2 5 5 3 6 5 2 4 1 2 2 2 1 1 6 14 4 15 10 8 6 3 3 3 5 3 3 4 5 2 1 2 5 11 8 3 3 2 5 5 6 8 6 6 8 1 1 0 1 4
20 20 22 22 23 23 23 24 25 25 22 11 9 5 3 3 4 2 2 3 2 3 5 3 3 4 3 4 8 4 6 4 6 7 6 4 1 4 3 4 9 3 4 2 2 1 3 3 2 3 3 3 10 9 9 13 9 6 4 7 5 3 3 4 2 1 3 1 2 3 1 6 4 4 4 5 5 6 3 4 1 5 7 9 7 5 4
21 21 21 22 23 23 23 24 25 25 25 18 7 4 3 4 2 3 1 4 4 4 2 2 4 3 3 3 7 5 4 7 11 7 4 6 5 1 3 3 1 3 3 4 4 5 7 3 3 4 3 3 2 11 10 15 10 9 6 3 6 6 3 5 4 4 6 7 8 6 7 10 3 4 7 5 7 6 4 7 2 5 1 4 4 4 8
20 20 21 21 23 24 23 24 24 24 24 23 6 3 3 2 4 1 1 2 3 3 1 3 3 4 3 5 5 2 4 3 6 9 6 6 3 3 4 6 4 2 2 3 2 3 5 7 3 2 2 2 2 8 13 13 10 13 14 7 4 1 1 3 7 7 8 9 7 5 6 4 9 6 10 5 2 3 3 5 5 8 4 6 6 7 5
21 20 20 21 21 23 24 23 22 23 24 24 5 3 2 1 1 3 5 2 4 5 2 3 1 2 3 3 3 3 3 5 4 8 1 5 6 2 4 3 2 2 2 3 2 4 2 8 7 8 4 4 4 9 16 10 10 14 12 10 2 1 3 4 5 7 11 10 5 6 7 10 6 8 7 5 6 7 6 6 8 5 10 4 3 5 6
20 21 21 21 22 22 24 23 23 24 24 27 2 1 1 2 1 2 2 3 3 5 1 1 5 6 4 4 2 6 5 3 1 1 4 2 4 3 1 5 8 6 6 1 2 2 3 1 2 5 4 5 3 2 5 9 10 11 3 2 4 2 3 4 3 2 3 6 3 5 4 6 7 9 8 6 6 7 7 5 4 7 5 8 4 6 7
19 21 21 20 21 21 23 23 24 23 25 19 1 3 3 2 2 2 1 2 2 3 10 10 9 8 5 3 3 2 2 6 3 2 1 2 2 6 1 2 7 10 8 2 3 4 4 4 2 2 5 3 3 2 3 1 3 4 3 1 2 2 6 4 2 1 2 1 3 4 6 3 6 7 9 8 10 9 8 5 4 9 4 7 6 9 12
19 20 21 22 21 21 22 23 23 22 23 11 5 5 4 4 4 3 1 5 7 7 5 4 4 4 4 4 6 4 2 4 6 3 3 1 2 4 2 7 11 9 9 6 1 6 3 4 4 3 0 6 2 1 1 4 4 7 4 3 1 4 5 4 0 1 1 2 2 4 7 6 5 4 5 6 6 5 3 2 1 3 4 1 4 6 9
18 18 20 19 20 20 21 22 22 20 17 6 7 3 4 3 3 4 7 7 4 3 3 5 4 2 2 2 3 3 3 7 5 5 4 4 2 6 6 5 1 7 3 5 11 12 7 7 11 11 3 2 1 1 1 1 6 7 4 3 1 4 4 1 2 2 1 2 6 3 4 4 3 1 3 6 5 5 3 2 5 4 3 2 6 3 7
16 17 18 19 19 20 20 21 20 18 14 5 5 4 5 4 3 5 4 4 4 4 5 5 2 2 2 2 6 3 7 7 5 4 4 5 6 7 8 1 5 8 6 9 8 7 7 10 12 9 8 8 7 3 2 2 6 5 3 1 2 2 3 1 1 2 1 2 2 5 7 5 1 3 6 8 1 1 1 0 2 3 8 8 6 8 8
17 16 17 18 19 19 19 19 19 17 9 7 6 5 6 5 6 4 3 4 3 1 5 4 2 3 5 5 9 9 6 7 2 2 4 2 3 4 3 2 6 6 5 7 7 7 13 11 7 3 6 7 4 2 2 5 2 4 3 0 0 1 3 2 1 2 1 5 5 2 4 4 4 2 3 6 5 4 4 2 5 5 5 5 5 6 2
17 17 17 17 18 18 18 19 17 18 11 4 4 5 5 6 6 3 3 3 5 2 3 5 5 5 7 12 8 9 9 9 7 4 5 3 7 7 4 2 2 3 4 4 7 9 6 2 1 2 3 3 4 4 4 3 3 5 3 1 2 2 3 1 2 1 0 3 3 4 5 6 5 2 5 4 4 8 7 0 2 2 1 2 3 2 6
18 18 17 17 17 18 18 17 17 17 14 6 5 6 7 6 4 3 4 3 5 6 7 7 7 8 9 9 8 7 8 10 7 7 6 4 4 3 2 2 1 4 4 10 9 4 4 2 2 0 1 6 3 5 6 6 3 3 1 4 5 3 5 2 3 1 0 3 4 3 3 4 5 7 2 2 4 2 7 2 4 1 3 3 4 8 8
19 18 18 17 16 17 18 17 16 16 16 11 5 5 6 5 3 3 3 3 6 3 5 10 7 8 11 12 8 12 9 7 7 1 2 3 4 4 5 2 3 5 8 5 3 4 3 5 3 5 4 6 3 2 1 1 0 6 7 2 3 7 3 5 1 1 2 1 1 3 3 3 2 2 4 2 3 7 8 4 2 0 1 4 4 6 5
18 19 18 18 16 16 18 17 16 15 15 14 4 4 4 4 2 3 4 3 5 9 4 3 7 9 10 10 5 9 6 7 9 7 3 2 2 4 3 4 6 6 4 3 5 4 2 1 3 3 3 3 1 1 3 3 1 4 1 3 3 1 6 2 5 1 3 3 2 2 3 0 5 6 4 1 0 1 4 8 2 3 2 3 5 6 9
17 18 19 18 17 16 18 17 16 15 15 15 5 4 5 3 4 3 4 3 3 7 4 4 4 6 7 8 5 3 5 6 6 5 7 3 2 7 4 4 7 3 1 4 1 3 3 2 1 1 0 0 2 1 1 0 2 2 6 2 2 8 8 7 7 1 1 4 2 1 3 2 5 7 6 4 1 4 3 6 3 3 2 1 5 5 2
17 18 18 18 17 17 17 17 16 15 14 14 7 5 4 1 2 3 3 3 3 8 10 9 7 5 5 7 3 3 1 3 4 5 6 8 5 5 9 8 4 3 4 4 5 4 3 1 0 2 3 2 0 2 1 2 3 1 1 5 8 7 3 4 6 4 1 3 2 1 2 1 1 4 6 4 1 3 4 5 4 3 3 2 5 7 7
17 17 18 18 17 17 17 17 17 16 15 15 7 5 4 2 1 2 2 3 3 7 5 2 3 3 3 2 5 4 2 3 3 1 2 5 3 3 4 5 7 4 3 3 2 4 3 0 2 1 1 2 1 1 2 2 4 4 3 3 2 2 2 4 6 4 1 4 0 1 3 5 4 5 7 4 1 3 4 5 3 3 2 3 3 7 7
17 17 17 18 17 17 17 17 16 16 15 15 9 5 2 1 3 1 2 3 3 7 7 4 4 7 7 4 6 4 2 3 3 3 7 4 1 3 3 4 1 3 7 2 4 2 2 2 0 1 0 5 3 0 1 1 3 0 4 3 2 1 3 1 4 4 3 2 2 3 4 6 2 5 3 2 1 1 3 3 2 1 0 1 1 3 7
18 17 16 17 17 17 17 17 17 15 15 15 9 4 6 5 2 1 4 3 3 8 14 11 6 8 4 3 5 5 6 6 2 1 1 2 4 6 2 3 5 1 4 2 1 1 1 1 1 1 1 2 1 1 0 1 1 2 1 2 4 6 3 2 3 2 2 2 3 2 1 1 1 6 2 3 1 4 3 1 0 2 0 1 1 2 6
18 17 16 16 17 17 17 17 17 16 14 14 10 5 5 2 1 1 1 4 4 8 10 4 5 11 6 9 9 8 6 10 5 2 2 4 4 3 3 1 4 1 1 1 1 1 0 1 1 1 1 1 4 2 0 1 2 1 1 3 1 2 3 1 2 4 5 2 2 2 4 4 2 1 2 2 2 1 3 3 1 0 1 2 4 2 5
17 16 16 17 18 17 17 17 17 16 15 13 12 4 6 1 1 1 3 3 6 9 9 8 6 13 14 14 16 14 15 16 15 7 6 5 3 1 2 2 3 1 1 1 2 1 2 0 1 1 2 2 3 1 1 2 1 3 2 2 1 1 1 6 4 3 2 2 3 3 3 5 4 3 1 1 2 1 5 1 2 2 1 3 1 4 4
17 15 17 18 18 18 18 18 17 15 15 14 10 3 6 7 4 3 2 5 5 7 9 13 11 13 12 14 17 17 16 13 12 8 7 3 5 2 2 1 3 1 1 1 0 2 1 1 1 1 1 1 1 2 1 2 0 3 2 1 2 0 1 1 5 0 1 0 2 1 1 1 2 1 0 1 2 3 2 2 3 1 3 2 0 3 6
16 16 17 18 18 19 19 19 18 15 15 14 9 5 5 3 5 4 2 3 3 8 7 3 2 6 0 3 3 6 7 8 11 13 7 7 3 5 3 2 1 2 2 3 2 0 1 1 1 1 0 1 1 2 2 4 1 0 0 2 2 2 1 1 3 1 5 2 2 2 1 2 1 1 1 1 0 0 2 1 1 0 1 1 1 2 3
16 16 17 18 18 19 19 19 18 16 15 16 12 6 6 5 2 1 2 3 4 3 4 9 6 12 5 5 10 7 5 6 4 7 8 11 11 7 7 2 5 4 2 1 1 3 2 0 1 1 1 2 1 1 1 1 1 0 2 2 2 1 1 6 2 2 2 3 4 2 3 4 4 3 1 4 2 2 1 1 1 1 1 2 2 1 3
16 16 17 18 18 18 19 19 19 17 14 16 14 7 6 7 3 3 1 4 4 3 4 5 10 7 7 13 9 4 7 8 9 8 8 13 14 14 12 3 4 0 3 2 2 0 1 1 1 1 1 2 1 1 0 3 2 0 1 2 2 2 2 2 2 2 0 1 1 1 2 3 4 2 1 1 1 1 3 3 4 4 4 3 3 3 2
16 16 16 17 18 19 19 19 18 15 15 16 10 6 7 7 5 7 6 5 2 2 3 6 8 11 6 16 16 7 5 5 6 7 7 8 11 10 9 7 3 1 1 1 3 2 2 1 1 0 2 1 1 0 1 1 1 2 1 5 1 1 2 1 4 5 1 4 4 4 5 2 2 2 1 2 1 1 5 5 6 6 5 4 5 6 5
17 16 18 18 19 20 20 19 17 16 16 18 10 8 8 7 4 7 7 7 4 1 3 6 8 15 14 11 6 5 12 8 5 6 6 6 3 8 9 9 4 2 1 1 3 0 0 1 2 1 0 3 0 2 0 0 1 1 1 5 1 1 3 4 4 7 4 6 4 3 2 3 4 3 3 3 2 3 7 4 3 4 3 1 4 4 5
17 17 19 19 19 20 20 19 18 16 18 14 6 9 6 2 2 6 7 6 4 3 4 7 7 6 3 9 13 12 5 3 7 5 5 6 2 6 7 7 7 4 3 1 1 2 2 3 2 3 1 4 3 1 2 1 1 2 4 2 1 2 4 4 4 5 1 2 5 5 3 4 1 1 2 2 2 5 6 2 2 2 3 2 3 3 4
17 19 20 20 20 20 19 19 19 16 16 4 4 2 3 1 1 4 5 6 5 2 2 4 6 6 4 4 7 5 7 8 6 4 4 4 2 2 6 6 4 2 2 3 3 3 3 1 2 3 2 1 1 1 0 1 1 5 4 3 6 3 3 4 6 2 0 1 4 4 3 3 1 0 1 1 2 1 5 4 4 5 5 2 3 1 1
19 20 21 21 21 21 22 21 21 16 11 2 2 2 1 1 2 2 7 5 1 1 1 1 6 6 8 4 3 9 11 10 5 6 6 3 4 3 2 3 0 4 1 0 0 2 2 1 1 1 1 1 4 2 3 2 2 3 4 3 3 3 2 1 3 2 1 5 3 3 2 2 1 1 4 4 4 2 3 1 3 4 4 6 5 3 1
19 21 21 22 21 22 22 22 20 16 5 5 5 4 3 2 2 0 4 5 5 2 1 4 6 3 3 4 3 3 5 6 1 3 3 1 2 0 0 0 3 1 1 2 1 1 2 2 1 1 2 1 3 1 3 2 2 4 3 4 4 4 2 1 2 3 3 5 7 6 4 1 1 2 1 0 2 2 4 3 2 3 5 4 3 3 3
20 22 23 24 24 25 23 22 19 12 6 8 13 16 19 22 18 14 9 5 2 2 2 2 3 2 2 6 8 6 2 3 2 5 4 1 1 0 1 3 1 1 1 3 0 1 2 2 1 1 1 0 1 1 2 3 5 3 3 3 3 1 1 1 0 1 4 1 2 2 3 3 1 2 1 0 1 4 3 4 2 4 7 7 6 5 5
21 22 26 26 25 25 22 22 16 7 3 3 3 5 6 10 10 13 4 3 1 1 1 1 2 2 6 6 4 5 3 3 4 2 3 3 1 0 1 2 3 0 1 1 3 1 1 0 2 1 1 1 1 0 1 4 5 5 3 2 1 2 2 2 1 2 0 1 0 2 4 4 1 2 1 2 3 3 3 5 5 6 5 5 3 2 2
22 24 26 26 25 24 20 6 4 1 2 2 4 5 3 5 6 5 9 5 2 1 0 2 1 2 5 5 2 8 2 3 3 1 1 4 1 0 1 0 2 1 3 1 1 0 1 3 4 2 3 1 1 1 3 5 6 2 1 2 2 4 3 3 0 1 1 2 5 5 4 5 5 3 2 1 2 3 5 5 4 4 4 3 2 2 2
22 26 25 26 25 12 1 2 2 3 1 2 5 4 7 10 6 5 7 2 1 1 0 2 1 3 2 2 4 5 2 4 2 2 2 1 4 2 2 2 0 3 0 1 2 0 1 1 1 2 1 1 4 4 6 5 4 3 4 5 7 8 6 7 5 3 1 0 5 4 5 4 6 4 2 0 1 2 4 4 4 4 4 2 3 2 2
21 24 25 19 6 2 1 1 1 1 1 4 12 17 16 4 4 4 1 1 3 0 2 1 2 6 4 4 1 6 4 4 5 3 4 2 2 2 2 1 2 2 0 1 1 1 3 1 2 1 1 2 3 5 6 4 4 4 4 6 8 5 1 2 5 6 4 4 5 2 1 3 3 1 1 1 1 1 3 4 2 2 1 1 2 2 0
21 20 6 4 3 1 0 1 0 6 15 16 11 2 1 2 1 1 1 0 3 2 1 0 6 3 0 1 6 4 2 4 3 2 4 1 0 2 0 1 1 0 1 2 2 2 1 2 0 1 2 5 5 6 5 3 4 5 3 3 7 6 6 6 6 6 6 3 0 0 1 0 1 2 3 3 3 3 4 2 1 1 0 2 3 1 3
12 5 3 2 1 2 1 1 5 17 11 4 1 0 1 0 1 0 2 2 0 2 2 5 6 4 5 4 8 2 3 3 6 3 1 3 1 3 1 0 2 1 1 1 4 2 0 1 1 1 2 3 2 0 2 2 2 2 2 3 4 4 4 6 8 11 11 9 10 9 8 7 5 5 3 2 1 0 1 1 2 1 0 0 1 3 4
3 6 3 3 1 4 3 5 12 9 2 0 1 1 1 0 1 2 0 1 2 2 2 4 5 6 8 11 8 7 0 5 4 3 4 6 0 0 1 1 1 1 1 0 5 2 1 1 1 1 3 3 3 2 1 1 1 1 1 1 1 3 1 3 3 2 1 0 1 4 4 4 5 5 6 5 3 3 2 1 0 1 2 2 3 4 3
2 2 2 1 5 3 5 8 6 0 0 1 0 0 1 1 2 1 1 1 1 3 3 4 1 1 3 3 3 7 5 1 2 1 1 2 3 1 1 1 1 1 1 1 3 1 2 1 1 1 5 3 4 2 1 1 1 3 3 2 3 3 5 3 1 1 4 3 3 1 1 3 4 4 5 6 5 3 3 3 2 1 3 4 4 4 4
3 3 4 5 7 8 6 2 0 1 0 0 1 1 1 2 1 1 1 1 3 2 3 3 3 3 5 10 7 4 4 3 2 1 1 2 1 1 2 1 1 1 1 3 1 2 1 1 0 3 5 5 5 0 2 2 1 3 4 3 2 4 4 5 4 2 2 4 3 2 2 2 2 3 4 5 4 4 4 4 2 2 4 3 4 4 4
14 11 3 3 3 1 1 1 1 1 1 0 2 1 1 0 2 2 2 2 1 0 4 1 3 1 1 2 1 3 3 1 1 1 0 2 1 1 1 0 1 0 2 1 1 1 1 1 1 7 6 2 1 1 1 1 1 2 2 2 2 1 4 5 4 3 1 2 4 3 3 4 4 2 2 4 6 4 2 1 2 4 3 4 5 4 4
3 1 0 0 1 3 0 0 0 1 1 0 2 0 1 2 5 3 2 4 3 3 1 4 6 5 8 2 2 1 0 1 2 1 1 0 1 0 1 0 3 4 0 1 1 1 3 2 7 3 2 0 1 2 2 2 3 4 4 4 3 3 4 4 4 5 4 3 4 3 4 5 5 4 3 2 4 7 4 4 3 3 4 4 4 4 4
2 1 1 1 1 1 1 2 1 1 1 1 1 1 0 2 5 2 4 3 1 7 9 8 7 3 6 5 1 1 1 1 1 1 1 1 1 0 1 2 2 2 0 2 1 1 1 1 4 1 2 3 4 4 3 3 3 4 3 1 2 3 3 4 3 4 4 4 4 4 5 4 5 4 4 4 2 3 7 6 4 5 4 5 4 4 3
2 0 1 2 4 2 0 1 0 0 1 0 1 1 3 5 3 7 6 3 6 8 8 9 7 5 6 2 2 2 0 2 2 1 1 1 1 2 3 0 2 0 1 1 0 1 3 5 5 3 3 5 5 5 4 3 1 2 4 2 0 1 2 3 2 3 4 4 4 4 5 4 5 5 4 2 3 4 4 4 4 5 5 5 4 4 4
1 0 0 0 0 3 0 0 1 0 1 2 1 3 5 7 6 8 6 3 7 8 9 9 8 6 3 1 1 1 1 1 1 1 0 1 2 2 1 1 2 0 1 1 1 2 3 5 5 6 5 5 4 3 3 3 2 3 3 2 1 0 0 2 2 4 3 2 3 4 4 4 4 4 4 4 2 3 4 5 5 5 7 7 4 4 4
1 2 0 0 2 1 0 0 1 4 2 3 4 5 5 4 5 7 6 4 6 6 6 7 5 1 2 2 1 2 1 0 1 2 1 1 1 1 1 1 0 0 1 1 1 3 6 6 7 6 4 4 5 6 4 3 3 2 2 2 2 1 1 3 2 2 4 5 5 4 3 3 5 5 5 5 4 2 4 4 4 3 4 4 4 4 4
1 0 0 1 1 1 1 3 5 5 5 5 5 5 6 8 8 8 9 7 8 9 7 4 4 1 1 0 1 1 0 0 1 2 1 1 1 2 1 1 0 1 1 1 2 3 5 8 9 7 3 2 3 4 5 5 5 5 4 4 4 5 3 2 1 1 3 4 4 4 4 3 4 4 3 4 5 4 3 2 3 4 4 6 6 5 4
0 1 0 1 3 3 3 2 3 4 6 6 5 7 6 6 7 9 6 10 10 10 8 1 0 1 2 0 1 1 1 0 2 1 2 2 1 1 1 1 0 1 2 3 3 6 6 6 4 5 6 4 3 2 3 4 4 4 4 4 3 2 3 3 2 3 4 5 5 5 5 4 4 4 6 7 5 3 4 3 3 3 3 3 7 7 7
0 1 2 3 3 3 2 4 3 6 7 6 6 6 5 7 5 8 9 7 10 8 3 2 2 1 1 2 1 1 0 1 2 2 2 2 2 1 1 1 0 1 4 5 5 6 5 4 5 6 7 6 5 5 4 3 4 5 4 4 4 4 4 3 4 4 3 4 4 5 5 6 7 6 2 3 5 5 3 1 2 4 5 4 3 5 5
0 1 2 2 1 3 4 4 3 5 6 5 5 5 4 6 6 8 8 8 7 4 4 3 1 1 1 0 1 1 1 1 1 1 2 1 1 0 0 0 2 2 3 4 5 6 4 5 7 8 7 7 8 7 6 6 4 4 5 5 4 4 4 4 3 4 4 2 3 5 3 1 1 2 3 5 4 4 4 4 4 2 2 4 4 4 4
Wind_Direction
350 350 349 347 346 346 345 346 346 348 346 345 345 316 289 331 261 165 184 170 162 122 268 225 212 231 256 348 295 269 272 253 269 274 188 217 209 226 213 235 222 236 223 223 217 279 278 218 229 225 238 212 209 218 183 187 202 156 217 172 256 167 253 296 288 286 326 347 358 149 156 143 103 239 97 124 180 179 170 171 185 182 190 80 36 217 258
349 351 350 348 347 346 346 346 346 347 349 339 325 301 296 283 287 308 163 192 131 152 233 256 227 259 285 255 260 203 244 251 274 250 247 228 159 207 228 234 210 265 202 236 255 319 9 276 218 296 213 248 218 199 165 174 205 181 212 173 194 188 252 161 293 56 105 177 57 91 203 157 169 187 211 184 164 178 163 108 103 177 209 170 135 210 281
349 351 352 349 347 346 347 347 346 345 343 343 324 305 301 289 244 234 247 155 171 210 210 261 307 282 304 291 288 285 247 223 227 225 226 208 230 355 266 235 9 242 241 258 252 249 194 297 263 217 255 253 206 178 178 184 200 211 218 186 156 181 196 134 195 171 158 182 177 189 171 194 183 173 188 190 160 147 121 204 156 190 259 132 148 220 249
351 351 352 351 349 347 348 348 345 343 339 343 329 310 291 7 344 308 264 171 193 268 274 271 271 299 295 289 274 239 262 262 215 205 251 208 233 220 277 309 272 259 333 277 241 260 208 189 267 3 297 291 244 166 189 187 192 207 229 220 88 180 141 152 162 166 183 197 200 234 138 131 166 188 167 187 144 140 122 121 134 197 203 180 224 181 225
353 352 353 353 351 349 349 349 347 343 339 342 330 284 220 299 306 331 329 296 212 248 240 255 252 275 335 289 346 285 259 291 295 173 218 208 185 211 212 244 302 246 197 257 293 234 261 219 250 266 251 251 266 181 173 187 186 202 221 228 54 30 316 255 186 209 202 179 196 193 168 167 166 146 168 147 154 155 144 155 208 173 115 237 266 208 155
354 354 353 354 353 351 351 351 350 346 342 341 336 282 247 334 171 143 231 302 303 323 291 209 294 273 263 257 274 270 298 310 287 310 243 153 186 178 313 201 251 248 243 334 317 306 301 156 195 275 230 255 283 113 183 165 199 207 211 128 174 180 272 274 134 269 217 217 162 151 145 150 166 159 155 159 174 141 168 218 202 143 161 200 233 181 191
353 355 355 354 353 354 353 354 353 350 346 343 303 11 331 18 339 300 347 316 252 212 274 299 289 288 229 258 265 283 271 287 234 248 304 175 213 185 217 225 242 242 236 211 271 312 7 334 285 279 320 313 341 68 93 209 191 157 165 183 156 127 257 244 223 245 33 205 244 174 134 131 148 161 169 159 155 184 176 202 193 173 183 198 173 174 214
350 355 354 354 355 354 354 355 356 355 349 346 23 44 346 9 342 328 270 235 268 269 274 263 270 277 250 219 242 240 194 270 304 303 204 251 267 159 205 207 220 253 247 214 188 236 214 238 283 274 13 314 48 27 170 155 149 160 193 169 254 148 268 246 274 82 300 316 56 128 135 135 149 196 151 156 159 126 148 120 31 19 53 353 142 169 239
346 351 353 355 355 356 356 357 358 359 353 14 12 5 48 315 289 286 315 313 268 258 244 279 292 289 260 235 268 231 231 237 231 273 206 185 183 170 208 216 195 215 232 216 205 232 238 232 230 243 228 252 283 106 311 124 131 164 191 203 163 140 248 84 57 100 297 354 45 57 103 101 112 108 95 130 136 144 192 160 203 153 173 126 99 134 256
341 345 348 353 357 358 356 357 359 2 357 13 350 347 340 308 266 292 296 282 295 315 298 291 270 302 304 312 299 299 287 274 313 318 273 234 219 191 211 204 52 322 317 300 290 266 251 258 250 232 223 229 257 228 193 152 149 140 218 57 235 164 154 52 39 82 273 277 62 104 111 94 65 266 213 186 185 186 166 318 158 196 147 115 132 215 225
339 340 344 349 355 357 358 359 357 2 3 12 353 329 332 345 328 324 281 277 287 255 319 287 19 273 311 308 313 311 280 293 299 166 278 337 289 196 202 208 151 234 219 246 259 257 264 258 245 180 212 221 218 239 239 95 120 138 145 46 334 92 104 133 167 123 248 311 1 33 92 171 237 235 190 152 169 169 142 204 208 206 146 198 195 205 162
338 337 339 343 349 356 357 357 357 358 3 358 328 313 326 323 306 270 297 315 291 297 337 287 316 306 314 310 315 294 306 311 295 178 239 268 279 305 290 291 136 312 241 250 284 284 265 204 95 110 194 234 224 207 107 91 132 99 132 126 228 150 98 110 141 90 236 340 21 70 177 230 240 219 232 224 182 159 159 213 314 239 131 81 110 122 163
339 337 338 340 343 351 355 356 358 354 355 349 342 328 322 321 287 287 291 293 288 328 337 311 304 283 273 294 314 309 306 290 278 252 242 254 303 322 246 222 194 245 310 309 320 1 57 300 331 91 291 346 337 27 58 77 116 6 97 150 126 159 109 164 43 82 293 49 29 110 236 239 276 288 213 188 94 108 99 56 339 337 182 168 229 204 192
339 337 338 340 340 344 350 354 356 355 350 350 340 323 310 320 327 314 319 323 292 252 299 293 288 319 338 330 326 311 316 327 331 176 231 213 217 258 281 245 236 277 291 282 30 39 23 25 22 14 331 3 1 85 284 276 122 172 257 173 150 138 107 87 79 3 136 167 132 203 289 350 352 35 124 192 151 170 154 166 273 243 182 153 201 249 193
338 338 337 338 340 341 346 350 356 354 347 346 330 310 316 316 285 298 308 276 287 297 268 253 331 326 321 306 324 332 336 327 358 329 281 276 258 228 229 275 297 298 286 57 0 36 103 80 22 27 328 40 107 233 311 127 353 36 260 41 327 212 120 214 102 331 109 120 35 0 28 288 275 242 268 284 187 170 174 103 278 301 277 182 185 207 207
335 337 335 337 338 340 344 346 354 352 347 345 328 319 299 286 296 264 273 268 302 309 269 219 328 308 304 297 301 318 317 326 319 305 334 323 271 321 303 306 306 344 353 70 87 80 24 58 240 101 184 200 240 54 276 1 60 4 37 12 78 37 79 112 106 158 43 37 101 212 133 241 218 267 275 298 154 163 167 83 206 271 255 239 174 189 227
334 335 336 336 336 338 342 344 349 351 345 348 335 335 299 324 336 324 312 292 232 247 283 307 287 266 290 296 347 5 320 312 348 2 333 330 321 302 300 326 313 28 19 68 12 46 7 10 174 208 256 192 151 212 228 68 105 64 8 56 47 58 7 44 42 58 76 134 65 353 204 130 334 262 287 313 45 123 86 166 267 258 268 230 156 170 167
329 332 333 334 334 335 337 342 345 346 345 343 338 325 284 301 287 342 272 268 293 275 260 247 58 340 271 259 293 271 301 336 13 293 233 273 310 326 325 342 345 335 24 75 40 56 338 294 9 30 314 252 212 121 168 199 142 180 166 163 126 59 12 53 156 149 112 85 309 324 313 280 268 273 284 309 256 71 102 191 230 248 244 252 170 163 161
327 329 331 333 332 332 334 337 343 344 344 342 337 305 234 249 329 10 287 267 258 266 246 316 332 259 265 298 256 270 281 277 284 302 306 348 290 251 265 274 18 352 356 82 63 120 220 280 334 84 9 313 16 179 287 93 188 91 115 74 58 9 97 328 84 95 157 180 109 223 241 243 260 299 261 273 71 124 192 234 192 150 248 300 218 156 170
325 327 331 331 330 330 332 335 338 343 341 339 343 305 281 301 222 80 29 322 270 273 287 267 210 238 225 234 298 306 317 317 225 213 169 288 286 344 35 11 329 105 337 57 67 205 79 336 307 9 357 267 270 185 35 285 298 148 189 191 127 202 109 194 149 181 66 43 64 19 113 275 163 306 340 36 97 230 208 200 238 189 217 109 342 197 187
326 329 332 329 327 329 330 330 332 339 341 336 338 322 316 241 186 90 160 270 293 298 295 280 203 233 249 268 259 260 263 254 252 294 244 239 287 27 61 240 251 0 272 73 105 333 147 322 332 265 229 170 291 48 90 314 335 229 211 203 133 221 98 227 262 189 142 114 127 188 210 246 278 135 179 251 189 194 200 128 36 40 171 163 157 260 199
325 329 330 327 326 325 326 326 331 336 337 333 329 313 288 246 225 228 244 215 246 224 246 283 298 279 264 256 261 251 242 244 249 232 272 300 316 273 213 212 266 192 237 126 29 3 14 169 77 29 357 312 10 104 182 64 17 300 325 88 77 263 176 177 163 220 121 184 212 233 237 230 262 176 222 228 291 177 185 137 146 112 0 168 126 148 201
324 328 328 326 325 324 322 324 326 334 330 327 324 296 297 304 294 298 303 275 242 252 265 273 276 267 264 252 240 238 235 235 250 254 228 205 307 315 268 335 307 253 292 160 224 154 186 110 234 172 26 231 229 320 354 103 147 356 9 268 165 270 206 200 83 138 240 245 180 300 329 349 345 358 299 119 30 25 77 120 86 267 250 195 168 145 162
322 326 326 325 324 323 320 321 326 329 327 323 320 303 291 268 285 327 308 245 282 300 284 209 343 310 328 318 269 221 221 235 224 232 208 172 198 293 323 261 221 355 285 242 177 203 201 131 229 120 144 246 84 36 26 2 30 213 22 341 336 271 116 70 110 191 73 117 325 50 45 318 315 355 15 338 64 179 198 125 91 246 277 284 311 165 157
320 324 323 323 322 320 318 318 322 326 322 322 317 297 283 281 226 131 33 340 334 36 307 312 271 249 282 284 281 274 216 217 185 202 193 197 205 209 233 226 176 191 284 319 63 48 45 45 335 44 81 269 110 310 257 90 317 145 33 271 7 350 115 75 98 99 120 198 231 250 259 255 260 238 190 97 80 73 30 129 172 163 149 114 121 113 77
317 319 320 321 321 317 317 317 321 321 318 317 319 301 287 265 209 181 210 259 251 254 286 298 283 310 332 333 316 266 282 276 261 252 210 209 209 215 228 293 280 288 122 81 76 86 120 57 114 126 75 313 114 114 235 217 276 309 133 243 220 255 26 140 157 103 288 328 270 254 5 351 350 344 228 224 240 72 51 35 57 58 56 42 67 81 126
312 314 317 320 318 316 316 317 318 317 318 320 314 288 271 265 204 188 197 201 182 300 224 261 287 294 350 312 293 304 267 267 276 258 253 230 216 212 213 227 230 2 74 54 14 128 74 103 100 345 172 241 114 203 164 354 308 314 314 275 305 47 64 169 78 82 126 178 196 147 124 224 281 300 297 298 300 112 70 36 37 25 31 33 58 36 52
310 312 316 318 318 316 316 317 316 316 320 320 314 289 272 260 218 193 191 203 196 194 266 287 297 294 306 269 257 280 298 285 262 282 286 291 223 185 194 199 164 113 115 142 296 342 71 12 281 232 242 291 16 307 269 153 64 18 300 268 225 96 202 130 135 155 217 242 231 174 145 166 216 218 297 310 308 82 69 67 43 18 20 12 79 64 51
311 314 315 316 316 315 315 314 313 316 318 323 321 306 297 249 196 171 186 193 222 272 262 265 278 306 307 301 314 312 286 266 290 280 283 296 268 151 188 189 190 162 97 85 133 117 161 225 181 139 201 213 115 275 24 320 21 264 239 236 214 236 164 180 185 166 243 216 194 178 136 163 224 285 293 319 340 89 86 39 37 13 1 17 83 113 126
312 313 314 315 315 315 314 312 310 310 314 355 3 354 352 2 104 156 173 174 190 278 307 339 330 265 303 317 290 289 302 310 304 295 301 329 2 170 188 175 195 153 142 174 170 224 224 171 265 281 266 184 146 150 61 237 259 253 260 243 243 274 231 223 162 137 17 197 164 180 156 128 85 172 294 300 323 85 97 70 55 40 14 33 86 92 181
313 312 313 313 313 311 310 309 305 301 307 69 64 31 12 229 155 167 170 136 14 252 192 157 243 298 315 251 258 289 296 308 310 315 307 265 248 236 214 140 143 154 163 299 343 232 141 264 159 258 47 96 114 134 179 145 246 304 272 254 255 262 281 153 178 211 180 99 109 129 88 56 348 50 34 8 358 16 83 46 20 55 65 51 24 39 40
312 312 313 312 311 310 308 304 299 295 258 192 192 183 173 123 78 334 263 321 2 312 228 329 321 333 280 299 270 264 285 289 309 340 317 9 318 2 10 73 224 150 137 161 197 68 244 219 123 256 155 225 91 129 92 116 188 239 249 237 247 258 293 2 64 76 94 141 109 58 40 14 23 122 190 270 340 357 92 91 49 55 73 86 76 50 58
313 313 313 313 311 309 306 300 294 287 239 227 241 261 273 274 265 254 261 277 306 229 139 100 224 272 294 266 316 299 259 349 359 18 321 303 244 270 244 0 29 89 314 95 287 214 223 141 135 110 231 68 160 152 134 197 220 232 235 240 263 253 140 34 345 180 158 199 109 132 200 198 221 240 209 90 0 29 29 34 4 58 45 38 20 10 24
312 314 314 313 309 308 305 302 304 287 230 222 228 237 244 249 256 257 196 147 197 235 105 154 290 296 268 317 1 280 20 8 292 27 329 299 264 39 249 24 2 106 305 186 257 73 325 60 207 221 345 21 46 98 284 261 250 271 280 262 204 96 83 66 60 97 161 212 16 139 165 177 111 67 63 47 35 2 54 41 42 53 40 44 11 350 356
315 316 314 311 309 308 311 324 98 89 162 206 257 266 265 258 230 175 159 158 115 325 82 270 171 299 328 341 359 277 329 8 317 283 183 271 42 155 246 62 327 78 281 93 47 134 221 235 170 114 233 328 53 229 247 257 285 287 294 92 96 99 69 83 334 267 236 148 105 102 109 118 112 126 133 50 35 21 61 40 38 79 51 2 337 336 15
318 317 313 311 309 313 90 96 115 118 61 216 238 244 250 289 263 176 185 218 194 164 167 257 121 223 169 275 301 280 335 331 283 313 237 293 345 29 92 114 224 249 161 90 211 4 217 247 100 260 303 77 227 195 231 210 225 243 204 179 186 166 182 177 172 196 249 80 119 128 124 137 144 179 181 161 30 42 78 69 29 63 83 23 352 326 30
320 317 314 310 312 111 334 207 267 125 180 262 279 284 286 287 87 89 71 338 302 127 196 221 276 241 179 235 271 276 23 321 328 337 334 12 264 284 37 43 221 283 68 2 2 215 260 47 101 111 176 182 251 232 243 234 218 202 208 189 183 198 234 212 166 145 118 90 80 64 97 144 135 97 163 193 170 103 71 61 34 62 32 345 295 291 231
322 317 329 346 16 26 340 332 86 306 322 302 303 319 25 43 85 15 9 64 261 152 271 135 247 250 324 122 253 256 12 272 55 2 309 231 25 296 38 109 240 176 265 243 250 188 74 39 219 167 263 250 256 264 259 240 237 232 243 194 171 197 192 162 145 131 133 120 36 179 49 56 195 247 173 208 206 141 143 164 171 197 196 242 245 194 106
325 314 3 14 60 267 218 247 332 331 315 265 130 62 305 23 76 288 226 223 8 221 258 169 244 179 181 224 268 289 196 301 334 22 301 274 102 305 354 258 293 60 326 7 292 54 273 326 352 30 273 302 351 260 318 314 326 306 266 235 200 193 165 167 175 158 164 184 193 188 172 183 197 220 225 222 270 288 168 155 102 106 185 164 106 97 100
355 357 344 328 283 246 286 311 337 326 308 33 325 105 238 310 128 266 243 114 263 253 131 233 216 188 193 206 232 293 224 143 191 257 226 303 222 144 266 98 264 93 253 69 252 35 121 251 289 53 284 276 248 263 311 331 322 334 333 328 178 166 157 180 187 6 90 167 177 196 199 182 176 168 179 187 185 158 123 48 161 121 107 117 128 118 124
354 306 338 269 268 305 305 318 328 12 62 59 1 356 63 298 243 203 170 241 235 239 195 193 247 273 255 203 177 233 278 130 223 134 124 242 254 100 44 252 240 74 308 275 278 60 75 79 5 187 235 236 224 228 238 344 0 11 12 28 96 122 128 115 94 150 119 89 68 67 200 193 178 175 169 167 168 161 150 141 130 131 121 118 120 123 126
260 253 239 266 287 286 301 327 90 36 5 160 123 261 227 225 301 331 167 187 247 239 283 172 260 220 234 183 199 184 269 205 137 117 143 288 292 146 226 319 6 101 244 233 124 62 75 180 293 284 262 248 247 221 97 104 18 44 25 23 77 107 110 110 101 41 69 126 130 105 70 101 117 138 157 141 146 141 136 112 103 126 134 130 110 106 108
295 290 269 287 311 304 234 326 284 113 121 5 49 331 326 316 230 200 273 268 285 140 264 225 239 206 264 132 256 208 207 215 195 277 113 245 287 51 90 14 55 293 237 318 65 59 34 214 229 250 252 254 245 148 236 206 145 71 29 14 41 55 97 102 103 100 37 103 116 108 101 85 82 86 118 125 113 76 62 82 146 149 144 132 128 123 122
259 206 206 169 308 278 143 329 228 45 0 116 112 235 304 335 309 3 349 280 301 298 286 6 323 5 303 259 167 242 334 347 41 58 295 310 97 256 61 206 220 245 49 42 47 145 220 220 209 225 271 285 98 194 210 167 127 87 51 17 27 67 75 78 87 92 82 73 76 78 81 82 83 64 62 64 114 121 109 92 87 108 102 103 105 116 122
7 348 6 358 297 262 55 313 313 115 208 268 139 132 5 275 270 253 253 257 199 275 295 295 296 275 243 268 35 328 100 204 304 99 257 306 319 2 121 252 250 34 102 236 338 331 347 277 283 336 278 171 193 211 216 218 183 140 160 70 30 23 60 85 104 115 119 111 124 107 98 97 85 77 83 94 93 127 136 142 151 124 125 121 122 121 138
45 242 354 44 327 305 132 230 288 16 309 113 57 299 279 261 246 272 260 246 274 289 288 284 287 263 261 254 141 220 323 92 66 253 226 88 118 249 237 211 81 68 21 40 72 216 218 240 271 263 213 201 191 197 201 226 236 117 106 127 266 43 80 137 156 129 151 138 137 126 135 129 124 118 112 119 129 116 107 117 130 136 131 126 148 160 164
331 321 113 148 238 271 112 123 321 223 229 271 236 260 251 260 261 261 270 273 283 286 287 273 250 242 263 299 67 347 11 54 207 247 73 287 233 260 16 120 241 172 153 254 244 258 269 268 252 244 223 190 174 184 201 227 224 152 172 167 93 342 94 97 123 145 153 131 126 125 126 139 129 121 111 90 83 117 135 140 151 162 152 161 165 144 137
249 262 74 108 249 236 31 263 309 289 254 231 288 283 264 263 300 315 307 281 271 300 312 318 302 311 324 300 99 184 222 104 20 299 191 241 5 24 4 34 350 265 176 144 241 237 262 266 282 288 253 195 174 175 204 216 213 191 209 194 201 210 132 120 136 160 143 151 160 156 175 166 141 143 146 151 151 169 166 169 167 143 105 113 126 140 141
180 72 178 230 232 302 279 288 350 328 309 322 311 312 333 347 333 311 310 318 328 318 293 257 261 105 255 262 112 107 51 315 103 270 1 14 186 223 166 205 34 55 278 201 265 274 267 291 296 281 287 214 197 199 199 193 184 190 206 213 208 206 176 163 150 184 159 140 159 162 182 165 128 116 112 124 144 199 215 196 154 144 147 139 143 146 149
83 319 334 233 335 315 270 306 42 329 320 324 343 333 334 332 324 314 326 328 327 321 316 353 51 155 255 129 283 354 223 243 127 14 334 300 307 306 67 76 238 152 320 323 296 289 297 304 318 23 25 16 355 296 231 224 213 210 218 225 223 196 189 166 178 190 160 156 172 187 163 138 132 140 158 183 185 160 147 150 181 160 172 168 151 162 167
241 163 240 171 170 241 11 341 307 305 314 317 327 317 339 320 315 307 328 323 314 318 28 22 295 347 332 22 41 60 251 137 76 124 170 243 309 53 121 161 219 258 264 274 263 276 307 333 24 44 27 24 7 359 330 272 224 218 222 224 237 229 235 214 176 160 184 178 143 130 152 179 192 193 191 112 123 126 115 121 217 197 172 176 176 158 174
16 313 273 289 223 224 226 243 260 239 245 277 298 289 325 302 313 308 312 314 316 20 345 291 338 339 53 112 237 228 302 64 105 83 63 275 172 74 329 215 285 280 269 291 301 310 335 21 39 47 44 30 11 352 342 340 305 245 206 207 224 233 229 237 211 179 174 156 164 160 168 195 164 115 110 103 101 109 137 196 235 215 204 188 192 201 178